{"data":{"norad_id":60535,"epoch":"2026-05-25T03:52:59.184768Z","epoch_age_seconds":57909,"freshness":"FRESH","line1":"1 60535U 24149BV  26145.16179612  .00003405  00000+0  28684-3 0  9992","line2":"2 60535  97.6848 222.1880 0002692 114.9358 245.2145 14.98863593139424","mean_motion":14.98863593,"eccentricity":0.0002692,"inclination_deg":97.6848,"raan_deg":222.188,"arg_perigee_deg":114.9358,"mean_anomaly_deg":245.2145,"bstar":0.00028684,"rev_number":13942,"period_min":96.0727851904,"perigee_km":568.53574029952,"apogee_km":572.27683600586,"semimajor_km":6948.5432881527,"source":"CELESTRAK","updated_at":"2026-05-25T13:38:02.146669Z"}}